User: anonymous   Login
Location: Branche des Alpilles
(43.6087°N, 4.6976°E)
Time: 20:37:06
(UTC+00:00)
Language:

Meteor 1-4 Rocket - Orbit

View from above orbital plane
View from above orbital plane
View from above satellite
View from above satellite

Ground track
Ground track

The orbit data is extracted from the following two-line orbital elements,

1 04394U 70037B   21055.52630243  .00002048  00000-0  66963-4 0  9993
2 04394  81.2400 228.7182 0037985 190.0689 169.9792 15.30491251771315
Epoch (UTC): 24 February 2021 12:37:52
Eccentricity: 0.0037985
inclination: 81.2400°
perigee height: 448 km
apogee height: 500 km
right ascension of ascending node: 228.7182°
argument of perigee: 190.0689°
revolutions per day: 15.30491251
mean anomaly at epoch: 169.9792°
orbit number at epoch: 77131

The dashed part of the orbit path shows where the satellite is in the earth's shadow,  

DLR